Time,TemperatureF,DewpointF,PressureIn,WindDirection,WindDirectionDegrees,WindSpeedMPH,WindSpeedGustMPH,Humidity,HourlyPrecipIn,Conditions,Clouds,dailyrainin,SolarRadiationWatts/m^2,SoftwareType,DateUTC
2013-01-25 00:11:00,57.3,50.0,30.28,West,270,0.0,1.0,76,0.00,,,0.00,0,weatherlink.com 1.10,2013-01-25 05:11:00,
2013-01-25 00:26:00,56.5,50.0,30.28,West,270,0.0,1.0,79,0.00,,,0.00,0,weatherlink.com 1.10,2013-01-25 05:26:00,
2013-01-25 00:41:00,56.2,50.0,30.28,West,270,0.0,1.0,80,0.00,,,0.00,0,weatherlink.com 1.10,2013-01-25 05:41:00,
2013-01-25 00:56:00,54.9,49.0,30.28,West,270,0.0,1.0,80,0.00,,,0.00,0,weatherlink.com 1.10,2013-01-25 05:56:00,
2013-01-25 01:11:00,54.0,49.0,30.29,West,270,0.0,0.0,82,0.00,,,0.00,0,weatherlink.com 1.10,2013-01-25 06:11:00,
2013-01-25 01:26:00,52.8,49.0,30.29,NNE,32,2.0,2.0,86,0.00,,,0.00,0,weatherlink.com 1.10,2013-01-25 06:26:00,
2013-01-25 01:41:00,53.6,50.0,30.29,North,351,1.0,4.0,88,0.00,,,0.00,0,weatherlink.com 1.10,2013-01-25 06:41:00,
2013-01-25 01:56:00,53.9,50.0,30.28,ENE,59,1.0,3.0,87,0.00,,,0.00,0,weatherlink.com 1.10,2013-01-25 06:56:00,
2013-01-25 02:17:00,53.7,50.0,30.29,NNE,26,1.0,3.0,87,0.00,,,0.00,0,weatherlink.com 1.10,2013-01-25 07:17:00,
2013-01-25 02:26:00,53.7,50.0,30.29,NE,37,0.0,3.0,86,0.00,,,0.00,0,weatherlink.com 1.10,2013-01-25 07:26:00,
2013-01-25 02:42:00,53.3,50.0,30.29,NNE,24,2.0,3.0,87,0.00,,,0.00,0,weatherlink.com 1.10,2013-01-25 07:42:00,
2013-01-25 02:57:00,53.2,50.0,30.28,ENE,65,2.0,4.0,89,0.00,,,0.00,0,weatherlink.com 1.10,2013-01-25 07:57:00,
2013-01-25 03:14:00,53.4,50.0,30.28,NE,41,4.0,4.0,89,0.00,,,0.00,0,weatherlink.com 1.10,2013-01-25 08:14:00,
2013-01-25 03:27:00,53.4,51.0,30.28,NNW,333,1.0,4.0,90,0.00,,,0.00,0,weatherlink.com 1.10,2013-01-25 08:27:00,
2013-01-25 03:43:00,53.3,51.0,30.28,NNE,31,3.0,5.0,91,0.00,,,0.00,0,weatherlink.com 1.10,2013-01-25 08:43:00,
2013-01-25 03:57:00,53.5,51.0,30.29,NNW,332,3.0,5.0,92,0.00,,,0.00,0,weatherlink.com 1.10,2013-01-25 08:57:00,
2013-01-25 04:12:00,53.3,51.0,30.29,NNE,22,2.0,6.0,92,0.00,,,0.00,0,weatherlink.com 1.10,2013-01-25 09:12:00,
2013-01-25 04:27:00,53.8,52.0,30.29,North,5,4.0,7.0,93,0.00,,,0.00,0,weatherlink.com 1.10,2013-01-25 09:27:00,
2013-01-25 04:42:00,54.2,52.0,30.29,NNW,346,4.0,8.0,92,0.00,,,0.00,0,weatherlink.com 1.10,2013-01-25 09:42:00,
2013-01-25 04:57:00,54.3,52.0,30.29,North,355,2.0,7.0,92,0.00,,,0.00,0,weatherlink.com 1.10,2013-01-25 09:57:00,
2013-01-25 05:12:00,54.3,52.0,30.29,NNE,31,3.0,8.0,92,0.00,,,0.00,0,weatherlink.com 1.10,2013-01-25 10:12:00,
2013-01-25 05:27:00,54.3,52.0,30.30,North,5,5.0,9.0,92,0.00,,,0.00,0,weatherlink.com 1.10,2013-01-25 10:27:00,
2013-01-25 05:42:00,54.2,52.0,30.29,NNE,30,1.0,11.0,92,0.00,,,0.00,0,weatherlink.com 1.10,2013-01-25 10:42:00,
2013-01-25 05:57:00,54.1,52.0,30.30,NE,47,2.0,8.0,92,0.00,,,0.00,0,weatherlink.com 1.10,2013-01-25 10:57:00,
2013-01-25 06:14:00,53.8,52.0,30.29,NE,55,0.0,4.0,92,0.00,,,0.00,0,weatherlink.com 1.10,2013-01-25 11:14:00,
2013-01-25 06:27:00,53.5,51.0,30.30,NE,34,0.0,5.0,92,0.00,,,0.00,0,weatherlink.com 1.10,2013-01-25 11:27:00,
2013-01-25 06:44:00,53.0,51.0,30.30,North,5,1.0,3.0,93,0.00,,,0.00,0,weatherlink.com 1.10,2013-01-25 11:44:00,
2013-01-25 06:57:00,53.0,51.0,30.31,ENE,64,2.0,4.0,94,0.00,,,0.00,0,weatherlink.com 1.10,2013-01-25 11:57:00,
2013-01-25 07:14:00,53.0,51.0,30.31,NE,35,1.0,3.0,94,0.00,,,0.00,0,weatherlink.com 1.10,2013-01-25 12:14:00,
2013-01-25 07:28:00,53.0,51.0,30.31,ENE,70,2.0,4.0,94,0.00,,,0.00,7,weatherlink.com 1.10,2013-01-25 12:28:00,
2013-01-25 07:44:00,53.2,52.0,30.31,NE,36,2.0,5.0,94,0.00,,,0.00,18,weatherlink.com 1.10,2013-01-25 12:44:00,
2013-01-25 07:58:00,53.6,52.0,30.32,North,350,2.0,5.0,94,0.00,,,0.00,30,weatherlink.com 1.10,2013-01-25 12:58:00,
2013-01-25 08:14:00,53.9,52.0,30.32,NE,37,1.0,5.0,93,0.00,,,0.00,53,weatherlink.com 1.10,2013-01-25 13:14:00,
2013-01-25 08:28:00,54.3,52.0,30.32,NE,41,3.0,4.0,93,0.00,,,0.00,77,weatherlink.com 1.10,2013-01-25 13:28:00,
2013-01-25 08:44:00,55.0,53.0,30.32,NE,55,0.0,5.0,93,0.00,,,0.00,114,weatherlink.com 1.10,2013-01-25 13:44:00,
2013-01-25 09:14:00,57.1,54.0,30.33,NNE,26,4.0,6.0,90,0.00,,,0.00,165,weatherlink.com 1.10,2013-01-25 14:14:00,
2013-01-25 09:29:00,57.8,54.0,30.32,NE,40,2.0,7.0,88,0.00,,,0.00,141,weatherlink.com 1.10,2013-01-25 14:29:00,
2013-01-25 09:44:00,58.9,55.0,30.32,ENE,69,2.0,7.0,87,0.00,,,0.00,151,weatherlink.com 1.10,2013-01-25 14:44:00,
2013-01-25 09:59:00,61.0,56.0,30.33,East,92,3.0,7.0,83,0.00,,,0.00,446,weatherlink.com 1.10,2013-01-25 14:59:00,
2013-01-25 10:14:00,61.7,56.0,30.32,NNE,27,3.0,4.0,80,0.00,,,0.00,274,weatherlink.com 1.10,2013-01-25 15:14:00,
2013-01-25 10:29:00,62.6,56.0,30.32,North,9,0.0,6.0,78,0.00,,,0.00,520,weatherlink.com 1.10,2013-01-25 15:29:00,
2013-01-25 10:44:00,64.4,56.0,30.32,NE,42,1.0,5.0,75,0.00,,,0.00,519,weatherlink.com 1.10,2013-01-25 15:44:00,
2013-01-25 10:59:00,66.0,55.0,30.32,South,175,2.0,5.0,68,0.00,,,0.00,564,weatherlink.com 1.10,2013-01-25 15:59:00,
2013-01-25 11:14:00,67.8,55.0,30.31,ENE,71,2.0,5.0,63,0.00,,,0.00,352,weatherlink.com 1.10,2013-01-25 16:14:00,
2013-01-25 11:29:00,68.5,53.0,30.30,SE,124,1.0,5.0,59,0.00,,,0.00,211,weatherlink.com 1.10,2013-01-25 16:29:00,
2013-01-25 11:44:00,69.6,53.0,30.30,SSE,161,4.0,5.0,56,0.00,,,0.00,643,weatherlink.com 1.10,2013-01-25 16:44:00,
2013-01-25 12:00:00,70.2,52.0,30.29,ENE,73,0.0,5.0,53,0.00,,,0.00,656,weatherlink.com 1.10,2013-01-25 17:00:00,
2013-01-25 12:15:00,70.1,52.0,30.27,WNW,294,1.0,5.0,53,0.00,,,0.00,696,weatherlink.com 1.10,2013-01-25 17:15:00,
2013-01-25 12:30:00,70.7,49.0,30.26,SSW,212,2.0,9.0,47,0.00,,,0.00,680,weatherlink.com 1.10,2013-01-25 17:30:00,
2013-01-25 12:45:00,71.4,49.0,30.24,SW,217,5.0,9.0,46,0.00,,,0.00,677,weatherlink.com 1.10,2013-01-25 17:45:00,
2013-01-25 13:00:00,71.5,48.0,30.24,West,275,2.0,12.0,43,0.00,,,0.00,666,weatherlink.com 1.10,2013-01-25 18:00:00,
2013-01-25 13:15:00,71.9,49.0,30.23,SW,221,3.0,11.0,45,0.00,,,0.00,668,weatherlink.com 1.10,2013-01-25 18:15:00,
2013-01-25 13:30:00,72.7,48.0,30.21,WNW,298,3.0,11.0,42,0.00,,,0.00,663,weatherlink.com 1.10,2013-01-25 18:30:00,
2013-01-25 13:45:00,72.6,49.0,30.20,South,191,4.0,13.0,44,0.00,,,0.00,649,weatherlink.com 1.10,2013-01-25 18:45:00,
2013-01-25 14:00:00,72.3,50.0,30.20,SSW,213,1.0,10.0,45,0.00,,,0.00,624,weatherlink.com 1.10,2013-01-25 19:00:00,
2013-01-25 14:15:00,72.7,49.0,30.19,SW,222,4.0,11.0,44,0.00,,,0.00,598,weatherlink.com 1.10,2013-01-25 19:15:00,
2013-01-25 14:30:00,72.7,49.0,30.18,West,260,5.0,13.0,44,0.00,,,0.00,584,weatherlink.com 1.10,2013-01-25 19:30:00,
2013-01-25 14:46:00,72.9,50.0,30.18,SSW,200,0.0,8.0,44,0.00,,,0.00,624,weatherlink.com 1.10,2013-01-25 19:46:00,
2013-01-25 15:01:00,72.5,49.0,30.18,West,267,3.0,14.0,44,0.00,,,0.00,213,weatherlink.com 1.10,2013-01-25 20:01:00,
2013-01-25 15:15:00,73.3,49.0,30.18,SW,233,4.0,9.0,43,0.00,,,0.00,543,weatherlink.com 1.10,2013-01-25 20:15:00,
2013-01-25 15:32:00,73.0,50.0,30.17,West,269,5.0,11.0,44,0.00,,,0.00,401,weatherlink.com 1.10,2013-01-25 20:32:00,
2013-01-25 15:46:00,73.1,50.0,30.17,South,178,3.0,10.0,44,0.00,,,0.00,385,weatherlink.com 1.10,2013-01-25 20:46:00,
2013-01-25 16:01:00,73.5,49.0,30.17,SW,232,4.0,13.0,42,0.00,,,0.00,338,weatherlink.com 1.10,2013-01-25 21:01:00,
2013-01-25 16:16:00,73.5,48.0,30.17,West,261,10.0,11.0,41,0.00,,,0.00,297,weatherlink.com 1.10,2013-01-25 21:16:00,
2013-01-25 16:31:00,73.4,48.0,30.17,WSW,243,7.0,10.0,41,0.00,,,0.00,257,weatherlink.com 1.10,2013-01-25 21:31:00,
2013-01-25 16:46:00,73.1,48.0,30.17,SW,230,6.0,10.0,41,0.00,,,0.00,202,weatherlink.com 1.10,2013-01-25 21:46:00,
2013-01-25 17:01:00,72.9,48.0,30.16,SW,223,3.0,10.0,42,0.00,,,0.00,153,weatherlink.com 1.10,2013-01-25 22:01:00,
2013-01-25 17:16:00,72.5,48.0,30.16,SW,231,3.0,10.0,42,0.00,,,0.00,114,weatherlink.com 1.10,2013-01-25 22:16:00,
2013-01-25 17:31:00,72.4,49.0,30.16,WSW,245,2.0,6.0,43,0.00,,,0.00,81,weatherlink.com 1.10,2013-01-25 22:31:00,
2013-01-25 17:46:00,71.5,49.0,30.16,West,263,2.0,3.0,45,0.00,,,0.00,28,weatherlink.com 1.10,2013-01-25 22:46:00,
2013-01-25 18:02:00,70.1,49.0,30.17,West,269,1.0,3.0,48,0.00,,,0.00,7,weatherlink.com 1.10,2013-01-25 23:02:00,
2013-01-25 18:17:00,68.8,49.0,30.18,WSW,258,1.0,3.0,50,0.00,,,0.00,0,weatherlink.com 1.10,2013-01-25 23:17:00,
2013-01-25 18:32:00,67.2,49.0,30.18,West,259,0.0,1.0,52,0.00,,,0.00,0,weatherlink.com 1.10,2013-01-25 23:32:00,
2013-01-25 18:46:00,66.4,49.0,30.18,WSW,250,0.0,2.0,54,0.00,,,0.00,0,weatherlink.com 1.10,2013-01-25 23:46:00,
2013-01-25 19:02:00,65.9,49.0,30.18,SW,216,3.0,9.0,55,0.00,,,0.00,0,weatherlink.com 1.10,2013-01-26 00:02:00,
2013-01-25 19:17:00,64.9,49.0,30.18,SW,225,3.0,7.0,57,0.00,,,0.00,0,weatherlink.com 1.10,2013-01-26 00:17:00,
2013-01-25 19:32:00,64.2,49.0,30.18,WSW,237,3.0,7.0,59,0.00,,,0.00,0,weatherlink.com 1.10,2013-01-26 00:32:00,
2013-01-25 19:47:00,63.4,49.0,30.19,West,268,3.0,7.0,60,0.00,,,0.00,0,weatherlink.com 1.10,2013-01-26 00:47:00,
2013-01-25 20:02:00,62.9,49.0,30.19,WSW,258,1.0,8.0,61,0.00,,,0.00,0,weatherlink.com 1.10,2013-01-26 01:02:00,
2013-01-25 20:17:00,62.1,49.0,30.19,WSW,250,2.0,5.0,63,0.00,,,0.00,0,weatherlink.com 1.10,2013-01-26 01:17:00,
2013-01-25 20:32:00,61.4,49.0,30.19,WSW,245,3.0,5.0,64,0.00,,,0.00,0,weatherlink.com 1.10,2013-01-26 01:32:00,
2013-01-25 20:47:00,61.0,49.0,30.19,WSW,244,3.0,6.0,64,0.00,,,0.00,0,weatherlink.com 1.10,2013-01-26 01:47:00,
2013-01-25 21:02:00,60.5,49.0,30.20,West,260,4.0,6.0,65,0.00,,,0.00,0,weatherlink.com 1.10,2013-01-26 02:02:00,
2013-01-25 21:18:00,60.1,49.0,30.20,WSW,247,3.0,6.0,66,0.00,,,0.00,0,weatherlink.com 1.10,2013-01-26 02:18:00,
2013-01-25 21:33:00,59.6,49.0,30.20,WSW,250,1.0,5.0,67,0.00,,,0.00,0,weatherlink.com 1.10,2013-01-26 02:33:00,
2013-01-25 21:47:00,59.0,48.0,30.21,West,262,2.0,5.0,68,0.00,,,0.00,0,weatherlink.com 1.10,2013-01-26 02:47:00,
2013-01-25 22:02:00,58.3,49.0,30.21,West,263,3.0,4.0,70,0.00,,,0.00,0,weatherlink.com 1.10,2013-01-26 03:02:00,
2013-01-25 22:17:00,57.7,48.0,30.21,WSW,247,3.0,4.0,71,0.00,,,0.00,0,weatherlink.com 1.10,2013-01-26 03:17:00,
2013-01-25 22:32:00,57.2,48.0,30.21,West,268,1.0,3.0,72,0.00,,,0.00,0,weatherlink.com 1.10,2013-01-26 03:32:00,
2013-01-25 22:47:00,56.9,49.0,30.21,WSW,248,3.0,5.0,75,0.00,,,0.00,0,weatherlink.com 1.10,2013-01-26 03:47:00,
2013-01-25 23:02:00,56.3,49.0,30.21,WSW,256,2.0,5.0,77,0.00,,,0.00,0,weatherlink.com 1.10,2013-01-26 04:02:00,
2013-01-25 23:18:00,55.7,49.0,30.22,WSW,239,0.0,5.0,79,0.00,,,0.00,0,weatherlink.com 1.10,2013-01-26 04:18:00,
2013-01-25 23:35:00,54.9,49.0,30.22,West,281,0.0,3.0,81,0.00,,,0.00,0,weatherlink.com 1.10,2013-01-26 04:35:00,
2013-01-25 23:48:00,54.4,49.0,30.22,West,259,3.0,4.0,82,0.00,,,0.00,0,weatherlink.com 1.10,2013-01-26 04:48:00,